Terminal Aerodrome Forecast
Issued by NWS

Home | Current Version | Previous Version | Text Only | Print | Product List | Glossary On
Versions: 1 2 3 4 5 6 7 8 9 10 11 12 13 14 15 16 17 18 19 20 21 22 23 24 25 26 27 28 29
000
FTUS41 KGYX 040531
TAFLEB
TAF
KLEB 040531Z 0406/0506 VRB03KT 6SM BR VCSH SCT002 BKN100
     FM040700 22003KT 1/2SM FG VV002
     FM041300 21007KT P6SM SCT070 SCT100
     FM041800 21008KT P6SM VCTS SCT060CB BKN100
     FM050300 25005KT 5SM BR SCT060=

USA.gov is the U.S. government's official web portal to all federal, state and local government web resources and services.